CHH7557 ZBYN-ZGOW

Flight info

Callsign CHH7557
Flight time 2h 8m
Altitude 33100
Route ANPIG B208 HFE R343 UPLEL W95 SAPIN V143 EMRID A470 TEBON V36 SAPUT
Aircraft B738/M-SDE2E3FGHIRWXY/LB1

Departure

Time 2026-04-25 06:03
Airport Taiyuan Wusu International Airport (ZBYN)

Arrival

Time 2026-04-25 08:12
Airport Jieyang Chaoshan International Airport (ZGOW)
Time Latitude Longitude Altitude Speed Heading
2026-04-25 05:48 37.75376 112.62511 2564 ft 0 kts 35°
2026-04-25 05:55 37.75373 112.62508 2564 ft 3 kts 35°
2026-04-25 05:55 37.75351 112.62489 2563 ft 4 kts 32°
2026-04-25 05:56 37.75328 112.62474 2562 ft 4 kts
2026-04-25 05:56 37.75311 112.62479 2564 ft 1 kts 311°
2026-04-25 05:56 37.75309 112.62483 2564 ft 0 kts 311°
2026-04-25 05:59 37.75315 112.62474 2561 ft 3 kts 311°
2026-04-25 05:59 37.75336 112.62441 2563 ft 7 kts 308°
2026-04-25 05:59 37.75373 112.62380 2562 ft 11 kts 309°
2026-04-25 06:00 37.75354 112.62287 2565 ft 14 kts 220°
2026-04-25 06:00 37.75303 112.62190 2565 ft 14 kts 280°
2026-04-25 06:00 37.75354 112.62088 2565 ft 13 kts 306°
2026-04-25 06:00 37.75409 112.61994 2563 ft 14 kts 308°
2026-04-25 06:01 37.75469 112.61892 2564 ft 16 kts 307°
2026-04-25 06:01 37.75540 112.61776 2564 ft 18 kts 308°
2026-04-25 06:01 37.75614 112.61652 2564 ft 17 kts 306°
2026-04-25 06:01 37.75631 112.61520 2564 ft 17 kts 227°
2026-04-25 06:02 37.75553 112.61452 2563 ft 10 kts 198°
2026-04-25 06:02 37.75499 112.61498 2564 ft 13 kts 126°
2026-04-25 06:02 37.75332 112.61776 2566 ft 72 kts 127°
2026-04-25 06:02 37.74905 112.62488 2564 ft 130 kts 127°
2026-04-25 06:03 37.74236 112.63543 2610 ft 173 kts 131°
2026-04-25 06:03 37.73460 112.64776 3126 ft 183 kts 127°
2026-04-25 06:03 37.72689 112.66103 3746 ft 192 kts 126°
2026-04-25 06:03 37.71932 112.67504 4493 ft 193 kts 126°
2026-04-25 06:04 37.71162 112.68987 4908 ft 214 kts 127°
2026-04-25 06:04 37.70262 112.70620 5092 ft 238 kts 127°
2026-04-25 06:04 37.69157 112.72272 5310 ft 258 kts 148°
2026-04-25 06:04 37.67432 112.73041 5725 ft 271 kts 173°
2026-04-25 06:05 37.65553 112.73381 6489 ft 274 kts 174°
2026-04-25 06:05 37.63649 112.73696 7202 ft 278 kts 174°
2026-04-25 06:05 37.61712 112.74018 7922 ft 282 kts 174°
2026-04-25 06:05 37.59760 112.74358 8638 ft 286 kts 174°
2026-04-25 06:06 37.57778 112.74723 9357 ft 289 kts 173°
2026-04-25 06:06 37.55782 112.75099 10064 ft 292 kts 173°
2026-04-25 06:06 37.53717 112.75493 10436 ft 310 kts 173°
2026-04-25 06:06 37.51511 112.75918 10602 ft 332 kts 173°
2026-04-25 06:07 37.49154 112.76378 10766 ft 353 kts 173°
2026-04-25 06:07 37.46651 112.76869 10911 ft 373 kts 173°
2026-04-25 06:07 37.44024 112.77386 11118 ft 389 kts 173°
2026-04-25 06:07 37.41319 112.77922 11545 ft 397 kts 173°
2026-04-25 06:08 37.38580 112.78465 12164 ft 400 kts 172°
2026-04-25 06:08 37.35821 112.79013 12772 ft 403 kts 172°
2026-04-25 06:08 37.33028 112.79566 13325 ft 408 kts 172°
2026-04-25 06:08 37.30245 112.80115 13872 ft 412 kts 173°
2026-04-25 06:09 37.27397 112.80676 14358 ft 416 kts 172°
2026-04-25 06:09 37.24521 112.81243 14850 ft 420 kts 172°
2026-04-25 06:09 37.21620 112.81814 15350 ft 423 kts 172°
2026-04-25 06:09 37.18706 112.82387 15869 ft 426 kts 172°
2026-04-25 06:10 37.15771 112.82964 16338 ft 429 kts 172°
2026-04-25 06:10 37.13807 112.83350 16647 ft 432 kts 172°
2026-04-25 06:10 37.09813 112.84134 17266 ft 437 kts 172°
2026-04-25 06:10 37.07824 112.84524 17589 ft 438 kts 172°
2026-04-25 06:11 37.03780 112.85418 18174 ft 443 kts 168°
2026-04-25 06:11 37.00818 112.86334 18552 ft 447 kts 166°
2026-04-25 06:11 36.97804 112.87357 18918 ft 450 kts 165°
2026-04-25 06:11 36.94774 112.88413 19311 ft 453 kts 165°
2026-04-25 06:12 36.91726 112.89468 19691 ft 457 kts 165°
2026-04-25 06:12 36.88653 112.90516 20072 ft 460 kts 165°
2026-04-25 06:12 36.86556 112.91221 20332 ft 462 kts 166°
2026-04-25 06:12 36.83436 112.92260 20694 ft 465 kts 166°
2026-04-25 06:13 36.80300 112.93296 21062 ft 468 kts 166°
2026-04-25 06:13 36.77138 112.94337 21425 ft 471 kts 166°
2026-04-25 06:13 36.73962 112.95381 21763 ft 474 kts 166°
2026-04-25 06:14 36.67543 112.97486 22389 ft 480 kts 166°
2026-04-25 06:14 36.64344 112.98535 22709 ft 483 kts 166°
2026-04-25 06:14 36.61082 112.99604 23024 ft 486 kts 166°
2026-04-25 06:14 36.57810 113.00676 23320 ft 488 kts 166°
2026-04-25 06:15 36.54511 113.01756 23615 ft 491 kts 166°
2026-04-25 06:15 36.51199 113.02840 23853 ft 494 kts 166°
2026-04-25 06:15 36.47869 113.03928 24098 ft 496 kts 166°
2026-04-25 06:15 36.44521 113.05021 24350 ft 498 kts 166°
2026-04-25 06:16 36.41161 113.06117 24592 ft 501 kts 166°
2026-04-25 06:16 36.37780 113.07218 24814 ft 504 kts 166°
2026-04-25 06:16 36.34379 113.08326 25034 ft 506 kts 165°
2026-04-25 06:16 36.30963 113.09438 25266 ft 508 kts 165°
2026-04-25 06:17 36.27535 113.10552 25490 ft 511 kts 165°
2026-04-25 06:17 36.24092 113.11676 25699 ft 513 kts 164°
2026-04-25 06:17 36.20677 113.13011 25910 ft 515 kts 160°
2026-04-25 06:17 36.17308 113.14513 26121 ft 517 kts 159°
2026-04-25 06:18 36.13938 113.16084 26387 ft 518 kts 158°
2026-04-25 06:18 36.10571 113.17658 26704 ft 517 kts 158°
2026-04-25 06:18 36.07194 113.19214 27022 ft 517 kts 159°
2026-04-25 06:18 36.03822 113.20742 27310 ft 517 kts 159°
2026-04-25 06:19 36.00433 113.22259 27614 ft 518 kts 159°
2026-04-25 06:19 35.97090 113.23746 27918 ft 518 kts 159°
2026-04-25 06:19 35.93694 113.25255 28224 ft 518 kts 159°
2026-04-25 06:19 35.90301 113.26763 28552 ft 518 kts 159°
2026-04-25 06:20 35.86912 113.28270 28891 ft 518 kts 159°
2026-04-25 06:20 35.83526 113.29777 29190 ft 518 kts 158°
2026-04-25 06:20 35.80131 113.31298 29484 ft 518 kts 158°
2026-04-25 06:20 35.76740 113.32823 29793 ft 519 kts 158°
2026-04-25 06:21 35.73354 113.34348 30108 ft 518 kts 158°
2026-04-25 06:21 35.69965 113.35872 30395 ft 518 kts 158°
2026-04-25 06:21 35.66583 113.37390 30647 ft 518 kts 158°
2026-04-25 06:21 35.63190 113.38910 30867 ft 519 kts 158°
2026-04-25 06:22 35.59790 113.40428 31078 ft 520 kts 158°
2026-04-25 06:22 35.56425 113.41913 31340 ft 520 kts 158°
2026-04-25 06:22 35.53020 113.43406 31538 ft 521 kts 158°
2026-04-25 06:22 35.49600 113.44904 31747 ft 522 kts 158°
2026-04-25 06:23 35.46183 113.46402 31979 ft 522 kts 158°
2026-04-25 06:23 35.42773 113.47900 32341 ft 519 kts 158°
2026-04-25 06:23 35.39372 113.49409 32656 ft 517 kts 157°
2026-04-25 06:23 35.35992 113.50916 32917 ft 517 kts 157°
2026-04-25 06:24 35.32616 113.52422 33114 ft 517 kts 157°
2026-04-25 06:24 35.25824 113.55448 33121 ft 519 kts 157°
2026-04-25 06:25 35.19056 113.58449 33110 ft 515 kts 157°
2026-04-25 06:25 35.12340 113.61420 33116 ft 512 kts 158°
2026-04-25 06:26 35.05652 113.64375 33114 ft 510 kts 157°
2026-04-25 06:26 34.99018 113.67302 33115 ft 509 kts 158°
2026-04-25 06:27 34.92359 113.70235 33116 ft 509 kts 158°
2026-04-25 06:27 34.85686 113.73142 33118 ft 510 kts 160°
2026-04-25 06:28 34.78852 113.75495 33129 ft 511 kts 163°
2026-04-25 06:28 34.71960 113.77672 33126 ft 512 kts 163°
2026-04-25 06:29 34.65074 113.79915 33126 ft 512 kts 163°
2026-04-25 06:29 34.58188 113.82195 33119 ft 513 kts 163°
2026-04-25 06:30 34.51540 113.85075 33120 ft 508 kts 149°
2026-04-25 06:30 34.45774 113.89847 33139 ft 500 kts 137°
2026-04-25 06:31 34.40369 113.95154 33123 ft 500 kts 137°
2026-04-25 06:31 34.34944 114.00425 33127 ft 500 kts 137°
2026-04-25 06:32 34.29489 114.05647 33130 ft 500 kts 138°
2026-04-25 06:32 34.24031 114.10840 33136 ft 499 kts 138°
2026-04-25 06:33 34.18571 114.16027 33136 ft 499 kts 138°
2026-04-25 06:33 34.13123 114.21198 33136 ft 498 kts 138°
2026-04-25 06:34 34.07709 114.26330 33138 ft 498 kts 138°
2026-04-25 06:34 34.02253 114.31493 33138 ft 497 kts 138°
2026-04-25 06:35 33.96809 114.36637 33138 ft 496 kts 138°
2026-04-25 06:35 33.91378 114.41759 33143 ft 496 kts 139°
2026-04-25 06:36 33.85941 114.46880 33141 ft 495 kts 139°
2026-04-25 06:36 33.80518 114.51992 33142 ft 495 kts 138°
2026-04-25 06:37 33.75156 114.57163 33145 ft 494 kts 137°
2026-04-25 06:37 33.69804 114.62329 33142 ft 493 kts 138°
2026-04-25 06:38 33.64681 114.67753 33131 ft 488 kts 128°
2026-04-25 06:38 33.60303 114.73882 33142 ft 487 kts 127°
2026-04-25 06:39 33.55874 114.80016 33150 ft 486 kts 127°
2026-04-25 06:39 33.51470 114.86173 33150 ft 486 kts 127°
2026-04-25 06:40 33.47067 114.92326 33152 ft 486 kts 127°
2026-04-25 06:40 33.42657 114.98471 33155 ft 486 kts 127°
2026-04-25 06:41 33.38230 115.04580 33138 ft 487 kts 131°
2026-04-25 06:41 33.35646 115.07221 33140 ft 492 kts 144°
2026-04-25 06:41 33.32665 115.09232 33153 ft 494 kts 154°
2026-04-25 06:41 33.29422 115.10617 33141 ft 496 kts 165°
2026-04-25 06:42 33.26066 115.11575 33151 ft 496 kts 166°
2026-04-25 06:42 33.19336 115.13396 33141 ft 496 kts 166°
2026-04-25 06:43 33.12611 115.15247 33144 ft 496 kts 166°
2026-04-25 06:43 33.05904 115.17146 33144 ft 495 kts 166°
2026-04-25 06:44 32.99200 115.19066 33150 ft 495 kts 166°
2026-04-25 06:44 32.92541 115.20972 33147 ft 495 kts 166°
2026-04-25 06:45 32.85851 115.22881 33144 ft 494 kts 166°
2026-04-25 06:45 32.79163 115.24785 33145 ft 493 kts 166°
2026-04-25 06:46 32.72487 115.26682 33142 ft 493 kts 166°
2026-04-25 06:46 32.65825 115.28571 33142 ft 492 kts 166°
2026-04-25 06:47 32.59169 115.30457 33140 ft 491 kts 166°
2026-04-25 06:47 32.52522 115.32337 33141 ft 491 kts 166°
2026-04-25 06:48 32.45884 115.34212 33142 ft 490 kts 166°
2026-04-25 06:48 32.39255 115.36081 33135 ft 490 kts 166°
2026-04-25 06:49 32.32630 115.37946 33139 ft 489 kts 167°
2026-04-25 06:49 32.26004 115.39809 33140 ft 489 kts 167°
2026-04-25 06:50 32.19376 115.41670 33137 ft 489 kts 167°
2026-04-25 06:50 32.12790 115.43516 33141 ft 489 kts 167°
2026-04-25 06:51 32.06161 115.45371 33135 ft 490 kts 167°
2026-04-25 06:51 31.99530 115.47224 33140 ft 489 kts 167°
2026-04-25 06:52 31.92899 115.49075 33137 ft 489 kts 167°
2026-04-25 06:52 31.86277 115.50920 33143 ft 489 kts 167°
2026-04-25 06:53 31.79652 115.52763 33138 ft 489 kts 167°
2026-04-25 06:53 31.73028 115.54603 33138 ft 489 kts 167°
2026-04-25 06:54 31.66412 115.56439 33126 ft 489 kts 167°
2026-04-25 06:54 31.59802 115.58269 33144 ft 488 kts 168°
2026-04-25 06:55 31.53189 115.60098 33139 ft 488 kts 168°
2026-04-25 06:55 31.46626 115.61910 33139 ft 487 kts 168°
2026-04-25 06:56 31.40020 115.63733 33145 ft 487 kts 168°
2026-04-25 06:56 31.33422 115.65550 33138 ft 486 kts 168°
2026-04-25 06:57 31.26837 115.67361 33148 ft 486 kts 168°
2026-04-25 06:57 31.20259 115.69167 33155 ft 485 kts 168°
2026-04-25 06:58 31.13681 115.70971 33150 ft 485 kts 168°
2026-04-25 06:58 31.07115 115.72769 33153 ft 485 kts 169°
2026-04-25 06:59 31.00584 115.74555 33160 ft 484 kts 169°
2026-04-25 06:59 30.94024 115.76346 33166 ft 484 kts 169°
2026-04-25 07:00 30.87456 115.78136 33165 ft 485 kts 169°
2026-04-25 07:00 30.80874 115.79928 33156 ft 486 kts 169°
2026-04-25 07:01 30.74278 115.81721 33154 ft 487 kts 169°
2026-04-25 07:01 30.68786 115.83212 33157 ft 488 kts 170°
2026-04-25 07:02 30.62172 115.85006 33151 ft 489 kts 170°
2026-04-25 07:02 30.55543 115.86802 33156 ft 489 kts 170°
2026-04-25 07:03 30.48912 115.88595 33144 ft 490 kts 170°
2026-04-25 07:03 30.42263 115.90391 33153 ft 490 kts 171°
2026-04-25 07:04 30.35617 115.92184 33146 ft 490 kts 171°
2026-04-25 07:04 30.28973 115.93973 33142 ft 490 kts 171°
2026-04-25 07:05 30.22339 115.95757 33131 ft 488 kts 171°
2026-04-25 07:05 30.15722 115.97535 33145 ft 488 kts 171°
2026-04-25 07:06 30.09116 115.99307 33146 ft 487 kts 171°
2026-04-25 07:06 30.02509 116.01077 33137 ft 487 kts 172°
2026-04-25 07:07 29.95912 116.02841 33133 ft 486 kts 172°
2026-04-25 07:07 29.89328 116.04600 33134 ft 485 kts 172°
2026-04-25 07:08 29.82750 116.06355 33134 ft 484 kts 172°
2026-04-25 07:08 29.76185 116.08104 33137 ft 484 kts 173°
2026-04-25 07:09 29.69676 116.09835 33138 ft 483 kts 173°
2026-04-25 07:09 29.63122 116.11576 33136 ft 483 kts 173°
2026-04-25 07:10 29.56579 116.13312 33133 ft 482 kts 173°
2026-04-25 07:10 29.50039 116.15045 33130 ft 482 kts 174°
2026-04-25 07:11 29.43505 116.16774 33132 ft 482 kts 174°
2026-04-25 07:11 29.36976 116.18499 33133 ft 481 kts 174°
2026-04-25 07:12 29.30450 116.20221 33134 ft 481 kts 174°
2026-04-25 07:12 29.20674 116.22797 33127 ft 480 kts 175°
2026-04-25 07:13 29.14170 116.24508 33126 ft 479 kts 175°
2026-04-25 07:13 29.07710 116.26205 33123 ft 479 kts 175°
2026-04-25 07:14 29.01222 116.27907 33121 ft 478 kts 175°
2026-04-25 07:14 28.94731 116.29608 33120 ft 478 kts 175°
2026-04-25 07:15 28.88238 116.31307 33121 ft 478 kts 176°
2026-04-25 07:15 28.81743 116.33004 33123 ft 479 kts 176°
2026-04-25 07:16 28.75246 116.34699 33119 ft 479 kts 176°
2026-04-25 07:16 28.68739 116.36395 33126 ft 480 kts 176°
2026-04-25 07:17 28.62224 116.38092 33118 ft 480 kts 176°
2026-04-25 07:17 28.55748 116.39776 33120 ft 480 kts 176°
2026-04-25 07:18 28.49229 116.41469 33118 ft 481 kts 177°
2026-04-25 07:18 28.42707 116.43161 33119 ft 481 kts 177°
2026-04-25 07:19 28.36189 116.44849 33116 ft 481 kts 177°
2026-04-25 07:19 28.29665 116.46537 33116 ft 480 kts 178°
2026-04-25 07:20 28.23165 116.48217 33113 ft 480 kts 178°
2026-04-25 07:20 28.16644 116.49900 33110 ft 479 kts 178°
2026-04-25 07:21 28.10149 116.51575 33106 ft 478 kts 179°
2026-04-25 07:21 28.03663 116.53245 33105 ft 477 kts 179°
2026-04-25 07:22 27.97198 116.54907 33108 ft 476 kts 179°
2026-04-25 07:22 27.90786 116.56554 33111 ft 475 kts 179°
2026-04-25 07:23 27.84347 116.58205 33109 ft 474 kts 180°
2026-04-25 07:23 27.77911 116.59853 33107 ft 473 kts 180°
2026-04-25 07:24 27.71495 116.61495 33111 ft 473 kts 180°
2026-04-25 07:24 27.65084 116.63133 33108 ft 472 kts 180°
2026-04-25 07:25 27.58686 116.64766 33104 ft 471 kts 180°
2026-04-25 07:25 27.52295 116.66395 33107 ft 471 kts 180°
2026-04-25 07:26 27.45913 116.68020 33112 ft 470 kts 180°
2026-04-25 07:26 27.39527 116.69644 33105 ft 470 kts 180°
2026-04-25 07:27 27.33146 116.71265 33108 ft 470 kts 180°
2026-04-25 07:27 27.26749 116.72887 33112 ft 471 kts 179°
2026-04-25 07:28 27.20356 116.74508 33094 ft 471 kts 179°
2026-04-25 07:28 27.14013 116.76114 33106 ft 470 kts 179°
2026-04-25 07:29 27.07638 116.77726 33114 ft 470 kts 179°
2026-04-25 07:29 27.01257 116.79337 33112 ft 470 kts 179°
2026-04-25 07:30 26.94874 116.80947 33118 ft 470 kts 179°
2026-04-25 07:30 26.88484 116.82556 33103 ft 471 kts 179°
2026-04-25 07:31 26.82086 116.84167 33114 ft 470 kts 179°
2026-04-25 07:31 26.75696 116.85774 33116 ft 470 kts 179°
2026-04-25 07:32 26.69308 116.87378 33097 ft 470 kts 178°
2026-04-25 07:32 26.62939 116.88976 33107 ft 469 kts 178°
2026-04-25 07:33 26.56604 116.90562 33101 ft 470 kts 178°
2026-04-25 07:33 26.50228 116.92158 33102 ft 469 kts 178°
2026-04-25 07:34 26.43868 116.93748 33102 ft 468 kts 178°
2026-04-25 07:34 26.37509 116.95336 33101 ft 468 kts 178°
2026-04-25 07:35 26.31178 116.96915 33102 ft 466 kts 178°
2026-04-25 07:35 26.24847 116.98492 33098 ft 465 kts 178°
2026-04-25 07:36 26.18527 117.00064 33104 ft 466 kts 177°
2026-04-25 07:36 26.12195 117.01637 33094 ft 465 kts 177°
2026-04-25 07:37 26.05891 117.03203 33105 ft 464 kts 177°
2026-04-25 07:37 25.99585 117.04767 33105 ft 464 kts 177°
2026-04-25 07:38 25.93285 117.06327 33105 ft 464 kts 177°
2026-04-25 07:38 25.86973 117.07889 33095 ft 464 kts 177°
2026-04-25 07:39 25.80717 117.09436 33106 ft 463 kts 177°
2026-04-25 07:39 25.74441 117.10986 33098 ft 462 kts 176°
2026-04-25 07:40 25.68164 117.12534 33093 ft 462 kts 176°
2026-04-25 07:40 25.61891 117.14079 33091 ft 462 kts 176°
2026-04-25 07:41 25.55612 117.15624 33111 ft 461 kts 176°
2026-04-25 07:41 25.49338 117.17167 33093 ft 462 kts 176°
2026-04-25 07:42 25.43049 117.18710 33078 ft 464 kts 176°
2026-04-25 07:42 25.36743 117.20256 33088 ft 465 kts 176°
2026-04-25 07:43 25.30419 117.21806 33105 ft 466 kts 176°
2026-04-25 07:43 25.24133 117.23346 33112 ft 467 kts 176°
2026-04-25 07:44 25.17784 117.24897 32758 ft 470 kts 176°
2026-04-25 07:44 25.14568 117.25399 32259 ft 461 kts 185°
2026-04-25 07:44 25.11400 117.25353 31763 ft 450 kts 194°
2026-04-25 07:45 25.08322 117.24826 31297 ft 448 kts 197°
2026-04-25 07:45 25.05239 117.24228 30821 ft 451 kts 197°
2026-04-25 07:45 25.02137 117.23621 30352 ft 454 kts 197°
2026-04-25 07:45 24.99014 117.23020 29858 ft 457 kts 197°
2026-04-25 07:46 24.95873 117.22427 29313 ft 458 kts 197°
2026-04-25 07:46 24.92725 117.21844 28790 ft 460 kts 196°
2026-04-25 07:46 24.89566 117.21266 28276 ft 461 kts 196°
2026-04-25 07:46 24.86397 117.20690 27748 ft 461 kts 196°
2026-04-25 07:47 24.83227 117.20115 27252 ft 462 kts 196°
2026-04-25 07:47 24.80033 117.19535 26773 ft 468 kts 196°
2026-04-25 07:47 24.76822 117.18951 26299 ft 468 kts 196°
2026-04-25 07:47 24.73647 117.18376 25824 ft 468 kts 196°
2026-04-25 07:48 24.70394 117.17788 25330 ft 467 kts 196°
2026-04-25 07:48 24.67193 117.17209 24855 ft 464 kts 196°
2026-04-25 07:48 24.64067 117.16645 24422 ft 461 kts 196°
2026-04-25 07:48 24.60907 117.16074 23968 ft 459 kts 196°
2026-04-25 07:49 24.57753 117.15502 23455 ft 455 kts 196°
2026-04-25 07:49 24.54636 117.14938 22981 ft 453 kts 196°
2026-04-25 07:49 24.51535 117.14376 22446 ft 451 kts 195°
2026-04-25 07:49 24.48444 117.13817 21931 ft 449 kts 195°
2026-04-25 07:50 24.45365 117.13260 21454 ft 447 kts 195°
2026-04-25 07:50 24.43333 117.12892 21130 ft 447 kts 195°
2026-04-25 07:50 24.39242 117.12152 20437 ft 444 kts 195°
2026-04-25 07:50 24.37225 117.11788 20118 ft 443 kts 194°
2026-04-25 07:51 24.34193 117.11241 19663 ft 441 kts 194°
2026-04-25 07:51 24.31167 117.10694 19200 ft 440 kts 194°
2026-04-25 07:51 24.28152 117.10151 18747 ft 438 kts 193°
2026-04-25 07:51 24.25142 117.09608 18274 ft 437 kts 194°
2026-04-25 07:52 24.22150 117.09069 17771 ft 434 kts 193°
2026-04-25 07:52 24.19172 117.08533 17249 ft 433 kts 193°
2026-04-25 07:52 24.16213 117.08001 16737 ft 430 kts 193°
2026-04-25 07:52 24.13266 117.07471 16224 ft 427 kts 193°
2026-04-25 07:53 24.10344 117.06946 15781 ft 424 kts 193°
2026-04-25 07:53 24.07450 117.06425 15285 ft 423 kts 193°
2026-04-25 07:53 24.04566 117.05908 14825 ft 416 kts 193°
2026-04-25 07:53 24.01741 117.05401 14377 ft 408 kts 193°
2026-04-25 07:54 23.98957 117.04902 13907 ft 402 kts 193°
2026-04-25 07:54 23.96218 117.04410 13420 ft 397 kts 193°
2026-04-25 07:54 23.93520 117.03868 12887 ft 389 kts 200°
2026-04-25 07:54 23.91150 117.02597 12393 ft 376 kts 219°
2026-04-25 07:55 23.89319 117.00685 11974 ft 364 kts 236°
2026-04-25 07:55 23.88021 116.98399 11879 ft 346 kts 243°
2026-04-25 07:55 23.86903 116.96133 11834 ft 331 kts 244°
2026-04-25 07:55 23.85842 116.93921 11833 ft 327 kts 245°
2026-04-25 07:56 23.84804 116.91757 11801 ft 315 kts 244°
2026-04-25 07:56 23.83800 116.89676 11720 ft 304 kts 245°
2026-04-25 07:56 23.82827 116.87675 11645 ft 293 kts 245°
2026-04-25 07:56 23.81884 116.85745 11535 ft 284 kts 244°
2026-04-25 07:57 23.80961 116.83860 11280 ft 281 kts 244°
2026-04-25 07:57 23.80037 116.81976 10957 ft 281 kts 244°
2026-04-25 07:57 23.79111 116.80092 10627 ft 281 kts 244°
2026-04-25 07:57 23.78189 116.78221 10328 ft 279 kts 244°
2026-04-25 07:58 23.77271 116.76358 10064 ft 278 kts 244°
2026-04-25 07:58 23.76357 116.74507 9778 ft 277 kts 244°
2026-04-25 07:58 23.75445 116.72658 9443 ft 276 kts 244°
2026-04-25 07:58 23.74532 116.70810 9137 ft 276 kts 244°
2026-04-25 07:59 23.73622 116.68969 8933 ft 276 kts 244°
2026-04-25 07:59 23.72699 116.67104 8907 ft 281 kts 244°
2026-04-25 07:59 23.71775 116.65237 8875 ft 278 kts 244°
2026-04-25 07:59 23.70862 116.63393 8736 ft 274 kts 244°
2026-04-25 08:00 23.69958 116.61568 8411 ft 274 kts 243°
2026-04-25 08:00 23.69048 116.59731 8078 ft 274 kts 243°
2026-04-25 08:00 23.68142 116.57903 7783 ft 274 kts 243°
2026-04-25 08:00 23.67235 116.56073 7470 ft 274 kts 243°
2026-04-25 08:01 23.66331 116.54251 7207 ft 272 kts 243°
2026-04-25 08:01 23.65430 116.52434 6897 ft 273 kts 243°
2026-04-25 08:01 23.64527 116.50614 6623 ft 272 kts 243°
2026-04-25 08:01 23.63626 116.48801 6356 ft 272 kts 243°
2026-04-25 08:02 23.62727 116.46991 6054 ft 271 kts 243°
2026-04-25 08:02 23.61830 116.45185 5938 ft 272 kts 243°
2026-04-25 08:02 23.60921 116.43358 5893 ft 274 kts 243°
2026-04-25 08:02 23.60015 116.41570 5891 ft 272 kts 239°
2026-04-25 08:03 23.58742 116.40066 5903 ft 272 kts 221°
2026-04-25 08:03 23.57268 116.38748 5897 ft 275 kts 220°
2026-04-25 08:03 23.55786 116.37434 5891 ft 274 kts 221°
2026-04-25 08:03 23.54311 116.36118 5881 ft 273 kts 221°
2026-04-25 08:04 23.52863 116.34814 5846 ft 266 kts 221°
2026-04-25 08:04 23.51474 116.33556 5799 ft 252 kts 221°
2026-04-25 08:04 23.50167 116.32370 5683 ft 238 kts 221°
2026-04-25 08:04 23.48928 116.31246 5579 ft 225 kts 221°
2026-04-25 08:05 23.47763 116.30185 5463 ft 212 kts 222°
2026-04-25 08:05 23.46666 116.29188 5402 ft 200 kts 222°
2026-04-25 08:05 23.45504 116.28418 5218 ft 197 kts 194°
2026-04-25 08:05 23.44147 116.28549 4918 ft 201 kts 155°
2026-04-25 08:06 23.43068 116.29495 4590 ft 200 kts 133°
2026-04-25 08:06 23.42158 116.30654 4228 ft 202 kts 130°
2026-04-25 08:06 23.41274 116.31817 3939 ft 199 kts 130°
2026-04-25 08:06 23.40387 116.32978 3614 ft 198 kts 129°
2026-04-25 08:07 23.39771 116.34286 3276 ft 195 kts 93°
2026-04-25 08:07 23.40145 116.35640 2950 ft 189 kts 53°
2026-04-25 08:07 23.40956 116.36764 2661 ft 187 kts 49°
2026-04-25 08:07 23.41802 116.37785 2605 ft 178 kts 47°
2026-04-25 08:08 23.42660 116.38762 2593 ft 179 kts 44°
2026-04-25 08:08 23.43580 116.39677 2595 ft 180 kts 41°
2026-04-25 08:08 23.44532 116.40565 2517 ft 182 kts 40°
2026-04-25 08:08 23.45502 116.41455 2297 ft 180 kts 40°
2026-04-25 08:09 23.46411 116.42287 2085 ft 162 kts 40°
2026-04-25 08:09 23.47217 116.43026 1901 ft 150 kts 41°
2026-04-25 08:09 23.48012 116.43754 1697 ft 148 kts 41°
2026-04-25 08:09 23.48797 116.44473 1492 ft 146 kts 41°
2026-04-25 08:10 23.49572 116.45184 1305 ft 146 kts 41°
2026-04-25 08:10 23.50351 116.45898 1104 ft 147 kts 41°
2026-04-25 08:10 23.51128 116.46608 917 ft 145 kts 40°
2026-04-25 08:10 23.51894 116.47312 710 ft 144 kts 40°
2026-04-25 08:11 23.52653 116.48010 490 ft 141 kts 41°
2026-04-25 08:11 23.53403 116.48698 281 ft 140 kts 41°
2026-04-25 08:11 23.54141 116.49379 79 ft 138 kts 41°
2026-04-25 08:11 23.54841 116.50010 29 ft 117 kts 36°
2026-04-25 08:12 23.55347 116.50468 22 ft 67 kts 40°
2026-04-25 08:12 23.55553 116.50656 24 ft 22 kts 40°
2026-04-25 08:12 23.55652 116.50779 24 ft 19 kts 58°
2026-04-25 08:12 23.55698 116.50874 24 ft 13 kts 65°
2026-04-25 08:13 23.55717 116.50967 22 ft 13 kts 108°
2026-04-25 08:13 23.55645 116.50968 22 ft 13 kts 219°
2026-04-25 08:13 23.55579 116.50908 21 ft 12 kts 221°
2026-04-25 08:14 23.55530 116.50864 22 ft 0 kts 220°